Location: Newark
(46.2061°N, 4.0794°E)
Time: 12:39:28
(UTC+00:00)

N. Korean satellite - Visible Passes

Search period start: 15 December 2019 00:00
Search period end: 25 December 2019 00:00
Orbit: 455 x 507 km, 97.2° (Epoch: 14 December)

Date Brightness Start Highest point End Pass type
(mag) Time Alt. Az. Time Alt. Az. Time Alt. Az.
15 Dec 10.0 04:30:26 10° ENE 04:31:30 11° E 04:32:32 10° ESE visible
15 Dec 6.6 06:01:48 10° N 06:05:13 50° WNW 06:08:34 10° SSW visible
15 Dec 6.6 16:39:03 10° SSE 16:42:45 83° ENE 16:46:25 10° N visible
16 Dec 6.6 05:36:18 10° NNE 05:39:48 75° ESE 05:43:14 10° S visible
16 Dec 9.8 17:48:40 10° SW 17:50:55 15° W 17:53:11 10° NW visible
17 Dec 8.2 05:11:05 10° NNE 05:14:17 34° E 05:17:27 10° SSE visible
17 Dec 8.0 06:45:09 10° NNW 06:47:26 17° WNW 06:49:41 10° WSW visible
17 Dec 8.8 17:22:04 10° SSW 17:25:19 29° W 17:28:33 10° NW visible
18 Dec 9.4 04:46:17 10° NE 04:48:41 17° E 04:51:03 10° SE visible
18 Dec 7.2 06:19:04 10° N 06:22:10 31° WNW 06:25:14 10° SW visible
18 Dec 7.3 16:56:10 10° S 16:59:48 59° W 17:03:25 10° NNW visible
19 Dec 6.4 05:53:21 10° N 05:56:49 64° WNW 06:00:13 10° SSW visible
19 Dec 6.6 16:30:44 10° SSE 16:34:22 66° ENE 16:37:58 10° N visible
20 Dec 7.1 05:27:56 10° NNE 05:31:22 57° E 05:34:45 10° S visible
20 Dec 9.6 17:39:50 10° SW 17:42:28 19° W 17:45:06 10° NW visible
21 Dec 8.7 05:02:49 10° NE 05:05:49 27° E 05:08:47 10° SSE visible
21 Dec 7.8 06:36:29 10° NNW 06:39:05 20° WNW 06:41:38 10° WSW visible
21 Dec 8.4 17:13:30 10° SSW 17:16:53 36° W 17:20:15 10° NNW visible
22 Dec 9.7 04:38:18 10° ENE 04:40:11 14° E 04:42:02 10° SE visible
22 Dec 6.9 06:10:33 10° N 06:13:47 38° WNW 06:16:58 10° SW visible
22 Dec 6.8 16:47:45 10° S 16:51:24 76° W 16:55:00 10° NNW visible
23 Dec 6.3 05:44:55 10° N 05:48:23 83° WNW 05:51:48 10° SSW visible
23 Dec 10.0 17:58:14 10° WSW 17:59:39 12° W 18:01:05 10° WNW visible
24 Dec 7.6 05:19:34 10° NNE 05:22:54 44° E 05:26:11 10° S visible
24 Dec 9.3 17:31:06 10° SSW 17:34:00 23° W 17:36:55 10° NW visible
